Portada
METAR-TAF:

METAR-TAF

Aeropuertos :

Barrancabermeja, Colombia

Aeropuerto Yariguíes

latitud: 07-01N, longitud: 073-48W, altitud: 126 m

Observación

El informe se hizo hace 1 hora y 10 minutos, a las 22:00 UTC
Viento 3 kt del este-noreste
Temperatura 33°C
Humedad 56%
Presión 1005 hPa
Visibilidad 10 km o más
Nubes dispersas a una altura de 2500 ft
Nubes dispersas a una altura de 20000 ft

METAR: SKEJ 212200Z 07003KT 9999 SCT025 SCT200 33/23 A2968

Hora: 18:10 (23:10 UTC)


TAF: falta

Observaciones y pronósticos meteorológicos de más de 4000 aeropuertos (mensajes METAR y TAF).

Los puntos amarillos y rojos representan las estaciones disponibles.

Ponga el ratón en el punto deseado para ver el nombre de la estación.

Haga clic para ver las observaciones y los pronósticos meteorológicos.

Para cambiar el mapa : haga clic en los botones verdes con una cruz de color negro para hacer un zoom, en el botón verde con un guión para alejar o en las flechas verdes para mapas adyacentes.


METAR-TAF: